Home   Weather   Charleroi   Past weeks

Flag for Belgium Past Weather in Charleroi, Belgium — Yesterday and Last 2 Weeks

41 °F


Feels Like: 41 °F
Forecast: 46 / 59 °F
Wind: 1 mph from North

Location: Charleroi / Gosselies

Current Time: Oct 26, 2016 at 4:22:31 AM

Latest Report: Oct 26, 2016 at 3:50 AM

Visibility: 1 mi

Pressure: 30.33 "Hg

Humidity: 93%

Dew Point: 39 °F

Location of CharleroiLocation

Past Weather in Charleroi — Graph


Charleroi Temperature Yesterday

Maximum temperature yesterday: 52 °F (at 4:20 PM)
Minimum temperature yesterday: 41 °F (at 10:50 PM)
Average temperature yesterday: 47 °F

High & Low Weather Summary for the Past Weeks

High66 °F (Oct 16, 2:50 PM)100% (Oct 11, 8:50 AM)30.33 "Hg (Oct 11, 8:50 AM)
Low37 °F (Oct 11, 7:20 AM)51% (Oct 13, 2:50 PM)29.62 "Hg (Oct 15, 1:20 AM)
Average48 °F86%30.00 "Hg
* Reported Oct 11 2:20 AM — Oct 26 2:50 AM, Charleroi, Weather by CustomWeather, © 2016

Note: Actual official high and low records may vary slightly from our data, if they occured in-between our weather recording intervals... More about our weather records


Charleroi Weather History for the Previous 24 Hours

Scroll right to see more
Time TempWeatherWind HumidityBarometerVisibility
2:50 AM
Wed, Oct 26
41 °FFog.2 mph93%30.33 "Hg1 mi
2:20 AM41 °FFog.1 mph93%30.33 "Hg1 mi
1:50 AM41 °FFog.2 mph100%30.33 "Hg1 mi
1:20 AM41 °FFog.2 mph93%30.33 "Hg1 mi
12:50 AM43 °FFog.2 mph93%30.33 "Hg1 mi
12:20 AM43 °FFog.5 mph93%30.33 "Hg1 mi
11:50 PM
Tue, Oct 25
41 °FFog.5 mph93%30.33 "Hg2 mi
11:20 PM43 °FFog.5 mph93%30.33 "Hg2 mi
10:50 PM41 °FFog.3 mph93%30.33 "Hg3 mi
10:20 PM43 °FFog.2 mph93%30.30 "Hg3 mi
9:50 PM43 °FFog.2 mph93%30.30 "Hg3 mi
9:20 PM43 °FFog.1 mph93%30.30 "Hg3 mi
8:50 PM45 °FFog.1 mph87%30.30 "Hg3 mi
8:20 PM43 °FFog.2 mph93%30.27 "Hg3 mi
7:50 PM45 °FPassing clouds.1 mph93%30.27 "Hg4 mi
7:20 PM46 °FPassing clouds.1 mph87%30.27 "Hg4 mi
6:50 PM46 °FPassing clouds.2 mph87%30.27 "Hg4 mi
6:20 PM48 °FPassing clouds.5 mph82%30.27 "Hg4 mi
5:50 PM50 °FPassing clouds.3 mph82%30.24 "Hg4 mi
5:20 PM50 °FScattered clouds.3 mph82%30.24 "Hg4 mi
4:50 PM52 °FPartly sunny.3 mph72%30.27 "Hg5 mi
4:20 PM52 °FPartly sunny.5 mph77%30.24 "Hg4 mi
3:50 PM50 °FPartly sunny.1 mph76%30.24 "Hg4 mi
3:20 PM50 °FPartly sunny.1 mph76%30.24 "Hg4 mi
2:50 PM50 °FPartly sunny.3 mph82%30.24 "Hg4 mi
2:20 PM50 °FPartly sunny.6 mph82%30.24 "Hg4 mi
1:50 PM50 °FBroken clouds.3 mph82%30.21 "Hg4 mi
1:20 PM50 °FBroken clouds.2 mph88%30.21 "Hg4 mi
12:50 PM50 °FFog.1 mph82%30.21 "Hg3 mi
12:20 PM48 °FFog.2 mph94%30.21 "Hg3 mi
11:50 AM48 °FFog.1 mph87%30.21 "Hg3 mi
11:20 AM48 °FFog.2 mph87%30.21 "Hg2 mi
10:50 AM48 °FFog.2 mph87%30.18 "Hg2 mi
10:20 AM48 °FFog.2 mph87%30.18 "Hg2 mi
9:50 AM46 °FFog.1 mph93%30.18 "Hg2 mi
9:20 AM46 °FFog.1 mph93%30.18 "Hg2 mi
8:50 AM46 °FFog.3 mph93%30.15 "Hg1 mi
8:20 AM46 °FDrizzle. Fog.2 mph93%30.15 "Hg1 mi
7:50 AM46 °FDrizzle. Fog.3 mph93%30.15 "Hg1 mi
7:20 AM46 °FDrizzle. Fog.2 mph93%30.15 "Hg1 mi
6:50 AM46 °FDrizzle. Fog.5 mph93%30.12 "Hg2 mi
6:20 AM46 °FDrizzle. Fog.5 mph100%30.12 "Hg2 mi
5:50 AM46 °FDrizzle. Fog.6 mph93%30.09 "Hg2 mi
5:20 AM46 °FDrizzle. Fog.6 mph100%30.09 "Hg1 mi
4:50 AM48 °FDrizzle. Fog.8 mph94%30.09 "Hg1 mi
4:20 AM48 °FFog.7 mph94%30.07 "Hg1 mi
Weather by CustomWeather, © 2016

See weather overviewHow to use our weather pages